Time,TemperatureF,DewpointF,PressureIn,WindDirection,WindDirectionDegrees,WindSpeedMPH,WindSpeedGustMPH,Humidity,HourlyPrecipIn,Conditions,Clouds,dailyrainin,SoftwareType,DateUTC
2015-08-28 00:14:00,67.0,39.0,-100.00,SSW,202,3.0,9.0,36,-99.99,,,-99.99,,2015-08-28 06:14:00,
2015-08-28 00:24:00,67.0,39.0,-100.00,SSW,202,3.0,9.0,36,-99.99,,,-99.99,,2015-08-28 06:24:00,
2015-08-28 00:34:00,67.0,39.0,-100.00,SSW,202,3.0,9.0,36,-99.99,,,-99.99,,2015-08-28 06:34:00,
2015-08-28 00:44:00,67.0,39.0,-100.00,SSW,202,3.0,9.0,36,-99.99,,,-99.99,,2015-08-28 06:44:00,
2015-08-28 00:51:00,65.0,39.0,-100.00,North,-9999,0.0,5.0,38,-99.99,,,-99.99,,2015-08-28 06:51:00,
2015-08-28 01:13:00,65.0,39.0,-100.00,North,-9999,0.0,5.0,38,-99.99,,,-99.99,,2015-08-28 07:13:00,
2015-08-28 01:23:00,65.0,39.0,-100.00,North,-9999,0.0,5.0,38,-99.99,,,-99.99,,2015-08-28 07:23:00,
2015-08-28 01:33:00,65.0,39.0,-100.00,North,-9999,0.0,5.0,38,-99.99,,,-99.99,,2015-08-28 07:33:00,
2015-08-28 01:44:00,65.0,39.0,-100.00,North,-9999,0.0,5.0,38,-99.99,,,-99.99,,2015-08-28 07:44:00,
2015-08-28 01:51:00,65.0,39.0,-100.00,South,181,4.0,7.0,38,-99.99,,,-99.99,,2015-08-28 07:51:00,
2015-08-28 02:12:00,65.0,39.0,-100.00,South,181,4.0,7.0,38,-99.99,,,-99.99,,2015-08-28 08:12:00,
2015-08-28 02:23:00,65.0,39.0,-100.00,South,181,4.0,7.0,38,-99.99,,,-99.99,,2015-08-28 08:23:00,
2015-08-28 02:33:00,65.0,39.0,-100.00,South,181,4.0,7.0,38,-99.99,,,-99.99,,2015-08-28 08:33:00,
2015-08-28 02:44:00,65.0,39.0,-100.00,South,181,4.0,7.0,38,-99.99,,,-99.99,,2015-08-28 08:44:00,
2015-08-28 02:51:00,61.0,39.0,-100.00,WSW,244,2.0,7.0,44,-99.99,,,-99.99,,2015-08-28 08:51:00,
2015-08-28 03:12:00,61.0,39.0,-100.00,WSW,244,2.0,7.0,44,-99.99,,,-99.99,,2015-08-28 09:12:00,
2015-08-28 03:23:00,61.0,39.0,-100.00,WSW,244,2.0,7.0,44,-99.99,,,-99.99,,2015-08-28 09:23:00,
2015-08-28 03:33:00,61.0,39.0,-100.00,WSW,244,2.0,7.0,44,-99.99,,,-99.99,,2015-08-28 09:33:00,
2015-08-28 03:44:00,61.0,39.0,-100.00,WSW,244,2.0,7.0,44,-99.99,,,-99.99,,2015-08-28 09:44:00,
2015-08-28 03:51:00,60.0,40.0,-100.00,SW,214,2.0,5.0,47,-99.99,,,-99.99,,2015-08-28 09:51:00,
2015-08-28 04:12:00,60.0,40.0,-100.00,SW,214,2.0,5.0,47,-99.99,,,-99.99,,2015-08-28 10:12:00,
2015-08-28 04:23:00,60.0,40.0,-100.00,SW,214,2.0,5.0,47,-99.99,,,-99.99,,2015-08-28 10:23:00,
2015-08-28 04:33:00,60.0,40.0,-100.00,SW,214,2.0,5.0,47,-99.99,,,-99.99,,2015-08-28 10:33:00,
2015-08-28 04:43:00,60.0,40.0,-100.00,SW,214,2.0,5.0,47,-99.99,,,-99.99,,2015-08-28 10:43:00,
2015-08-28 04:51:00,59.0,39.0,-100.00,North,-9999,0.0,7.0,48,-99.99,,,-99.99,,2015-08-28 10:51:00,
2015-08-28 05:13:00,59.0,39.0,-100.00,North,-9999,0.0,7.0,48,-99.99,,,-99.99,,2015-08-28 11:13:00,
2015-08-28 05:24:00,59.0,39.0,-100.00,North,-9999,0.0,7.0,48,-99.99,,,-99.99,,2015-08-28 11:24:00,
2015-08-28 05:35:00,59.0,39.0,-100.00,North,-9999,0.0,7.0,48,-99.99,,,-99.99,,2015-08-28 11:35:00,
2015-08-28 05:43:00,59.0,39.0,-100.00,North,-9999,0.0,7.0,48,-99.99,,,-99.99,,2015-08-28 11:43:00,
2015-08-28 05:51:00,58.0,39.0,-100.00,SW,216,2.0,4.0,50,-99.99,,,-99.99,,2015-08-28 11:51:00,
2015-08-28 06:13:00,58.0,39.0,-100.00,SW,216,2.0,4.0,50,-99.99,,,-99.99,,2015-08-28 12:13:00,
2015-08-28 06:23:00,58.0,39.0,-100.00,SW,216,2.0,4.0,50,-99.99,,,-99.99,,2015-08-28 12:23:00,
2015-08-28 06:33:00,58.0,39.0,-100.00,SW,216,2.0,4.0,50,-99.99,,,-99.99,,2015-08-28 12:33:00,
2015-08-28 06:43:00,58.0,39.0,-100.00,SW,216,2.0,4.0,50,-99.99,,,-99.99,,2015-08-28 12:43:00,
2015-08-28 06:51:00,55.0,39.0,-100.00,West,259,3.0,4.0,55,-99.99,,,-99.99,,2015-08-28 12:51:00,
2015-08-28 07:13:00,55.0,39.0,-100.00,West,259,3.0,4.0,55,-99.99,,,-99.99,,2015-08-28 13:13:00,
2015-08-28 07:23:00,55.0,39.0,-100.00,West,259,3.0,4.0,55,-99.99,,,-99.99,,2015-08-28 13:23:00,
2015-08-28 07:33:00,55.0,39.0,-100.00,West,259,3.0,4.0,55,-99.99,,,-99.99,,2015-08-28 13:33:00,
2015-08-28 07:44:00,55.0,39.0,-100.00,West,259,3.0,4.0,55,-99.99,,,-99.99,,2015-08-28 13:44:00,
2015-08-28 07:51:00,60.0,40.0,-100.00,ESE,110,1.0,3.0,48,-99.99,,,-99.99,,2015-08-28 13:51:00,
2015-08-28 08:13:00,60.0,40.0,-100.00,ESE,110,1.0,3.0,48,-99.99,,,-99.99,,2015-08-28 14:13:00,
2015-08-28 08:23:00,60.0,40.0,-100.00,ESE,110,1.0,3.0,48,-99.99,,,-99.99,,2015-08-28 14:23:00,
2015-08-28 08:33:00,60.0,40.0,-100.00,ESE,110,1.0,3.0,48,-99.99,,,-99.99,,2015-08-28 14:33:00,
2015-08-28 08:43:00,60.0,40.0,-100.00,ESE,110,1.0,3.0,48,-99.99,,,-99.99,,2015-08-28 14:43:00,
2015-08-28 08:51:00,67.0,43.0,-100.00,ESE,110,1.0,4.0,41,-99.99,,,-99.99,,2015-08-28 14:51:00,
2015-08-28 09:13:00,67.0,43.0,-100.00,ESE,110,1.0,4.0,41,-99.99,,,-99.99,,2015-08-28 15:13:00,
2015-08-28 09:25:00,67.0,43.0,-100.00,ESE,110,1.0,4.0,41,-99.99,,,-99.99,,2015-08-28 15:25:00,
2015-08-28 09:33:00,67.0,43.0,-100.00,ESE,110,1.0,4.0,41,-99.99,,,-99.99,,2015-08-28 15:33:00,
2015-08-28 09:47:00,67.0,43.0,-100.00,ESE,110,1.0,4.0,41,-99.99,,,-99.99,,2015-08-28 15:47:00,
2015-08-28 09:51:00,73.0,41.0,-100.00,ENE,63,2.0,4.0,32,-99.99,,,-99.99,,2015-08-28 15:51:00,
2015-08-28 10:13:00,73.0,41.0,-100.00,ENE,63,2.0,4.0,32,-99.99,,,-99.99,,2015-08-28 16:13:00,
2015-08-28 10:23:00,73.0,41.0,-100.00,ENE,63,2.0,4.0,32,-99.99,,,-99.99,,2015-08-28 16:23:00,
2015-08-28 10:33:00,73.0,41.0,-100.00,ENE,63,2.0,4.0,32,-99.99,,,-99.99,,2015-08-28 16:33:00,
2015-08-28 10:43:00,73.0,41.0,-100.00,ENE,63,2.0,4.0,32,-99.99,,,-99.99,,2015-08-28 16:43:00,
2015-08-28 10:51:00,80.0,42.0,-100.00,North,6,3.0,5.0,26,-99.99,,,-99.99,,2015-08-28 16:51:00,
2015-08-28 11:34:00,80.0,42.0,-100.00,North,6,3.0,5.0,26,-99.99,,,-99.99,,2015-08-28 17:34:00,
2015-08-28 11:43:00,80.0,42.0,-100.00,North,6,3.0,5.0,26,-99.99,,,-99.99,,2015-08-28 17:43:00,
2015-08-28 11:51:00,86.0,41.0,-100.00,NNE,23,2.0,7.0,21,-99.99,,,-99.99,,2015-08-28 17:51:00,
2015-08-28 12:33:00,86.0,41.0,-100.00,NNE,23,2.0,7.0,21,-99.99,,,-99.99,,2015-08-28 18:33:00,
2015-08-28 12:43:00,86.0,41.0,-100.00,NNE,23,2.0,7.0,21,-99.99,,,-99.99,,2015-08-28 18:43:00,
2015-08-28 13:13:00,90.0,38.0,-100.00,NE,40,5.0,11.0,16,-99.99,,,-99.99,,2015-08-28 19:13:00,
2015-08-28 13:23:00,90.0,38.0,-100.00,NE,40,5.0,11.0,16,-99.99,,,-99.99,,2015-08-28 19:23:00,
2015-08-28 13:34:00,90.0,38.0,-100.00,NE,40,5.0,11.0,16,-99.99,,,-99.99,,2015-08-28 19:34:00,
2015-08-28 13:44:00,90.0,38.0,-100.00,NE,40,5.0,11.0,16,-99.99,,,-99.99,,2015-08-28 19:44:00,